Погода в Самбурове

Россия / Ростовская область     48°24′10″N   40°35′30″E
темп.,
°C
ветер,
м/с
пор.,
м/с
влажн.,
%
обл.,
%
осадки,
мм/ч
давл.,
гПа
погр.,
м
16 сентября, чт
чт1600:00+13с33360 0.0 101529
03:00+12с22382 0.0 101515
06:00+10ссз114130 0.0 101610
09:00+16ссз343059 0.0 1016494
12:00+20ссз452793 0.0 10161484
15:00+21ссз442569 0.0 10151865
18:00+19ссз33325 0.0 101644
21:00+14ссв47430 0.0 1018113
17 сентября, пт
пт1700:00+12св35470 0.0 101887
03:00+11в22490 0.0 101925
06:00+10вюв22545 0.0 101910
09:00+16ююв334080 0.0 1018482
12:00+20ю33295 0.0 10171733
15:00+22юз34255 0.0 10152123
18:00+19юз1131100 0.0 101511
21:00+16юв12365 0.0 101611
18 сентября, сб
сб1800:00+14ю354332 0.0 101580
03:00+13ю235921 0.0 101531
06:00+12ю226845 0.0 101626
09:00+17юв115417 0.0 1016440
12:00+22юв443760 0.0 10151450
15:00+24юв342836 0.0 10152238
18:00+21в34347 0.0 101477
21:00+16в8134469 0.0 1015294
19 сентября, вс
вс1900:00+14в6124986 0.0 1015307
03:00+15в6114997 0.0 1014300
06:00+15вюв51248100 0.0 1014375
09:00+18юв71159100 0.0 1014680
12:00+22ююв8952100 0.0 10141507
15:00+16юв61177100 0.4 1014571
18:00+17ююв51069100 0.3 1013616
21:00+15ююв3782100 1.2 1013215
20 сентября, пн
пн2000:00+15ююв31086100 0.6 1011314
03:00+15ююв4984100 1.4 1011292
06:00+15юв5109146 0.8 1011322
09:00+18ююв687157 0.9 1010496
12:00+23юз575272 1.8 10101411
15:00+25зюз693275 1.8 10102671
18:00+21зсз344158 0.0 101172
21:00+19зсз22467 0.0 101216